Latest Weather Observations for Hamilton Island

IDQ60801

Issued at 8:52 pm EST Saturday 9 May 2026 (issued every 10 minutes, with the page automatically refreshed every 10 minutes)

About weather observations | Map of weather stations | Latest weather observations for QLD | Other Formats
Station Details ID: 033106 Name: HAMILTON ISLAND AIRPORT Lat: -20.37 Lon: 148.95 Height: 58.66 m
Data from the previous 72 hours. | See also: Recent months at Hamilton Island
Date/Time
EST
Temp
°C
App
Temp
°C
Dew
Point
°C
Rel
Hum
%
Delta-T
°C
Wind Press
QNH
hPa
Press
MSL
hPa
Rain since
9am
mm
Dir  Spd
km/h
Gust
km/h
Spd
kts
Gust
kts
09/08:30pm 22.5 18.9 19.3 82 2.0 SE 37 43 20 23 1020.2 1019.9 0.0
09/08:00pm 22.4 18.2 19.0 81 2.2 SE 39 46 21 25 1020.2 1019.9 0.0
09/07:30pm 22.5 19.0 19.5 83 1.9 SE 37 44 20 24 1019.9 1019.6 0.0
09/07:00pm 22.2 18.0 18.8 81 2.1 SE 39 44 21 24 1019.5 1019.2 0.0
09/06:30pm 22.1 18.0 18.3 79 2.4 SE 37 43 20 23 1019.0 1018.7 0.0
09/06:00pm 22.0 17.4 18.0 78 2.5 SE 39 46 21 25 1018.6 1018.3 0.0
09/05:30pm 22.0 17.6 17.6 76 2.7 SE 37 44 20 24 1018.5 1018.2 0.0
09/05:00pm 22.0 17.1 17.4 75 2.8 SE 39 46 21 25 1018.2 1018.0 0.0
09/04:30pm 22.0 17.3 16.9 73 3.1 SE 37 46 20 25 1018.0 1017.8 0.0
09/04:00pm 22.1 17.5 17.0 73 3.1 SE 37 44 20 24 1017.8 1017.6 0.0
09/03:30pm 22.1 16.7 16.1 69 3.6 SE 39 44 21 24 1017.6 1017.4 0.0
09/03:00pm 22.2 17.6 16.0 68 3.7 SE 35 43 19 23 1017.5 1017.3 0.0
09/02:30pm 22.2 17.6 16.2 69 3.6 SE 35 44 19 24 1017.4 1017.2 0.0
09/02:00pm 21.8 15.9 14.7 64 4.2 SE 39 48 21 26 1017.6 1017.4 0.0
09/01:30pm 22.0 16.1 15.8 68 3.7 SE 41 46 22 25 1017.8 1017.6 0.0
09/01:00pm 21.4 14.2 13.6 61 4.5 SSE 44 52 24 28 1018.0 1017.8 0.0
09/12:30pm 21.5 14.1 14.2 63 4.3 SSE 46 54 25 29 1018.5 1018.2 0.0
09/12:00pm 21.2 13.4 13.1 60 4.6 SSE 46 56 25 30 1018.7 1018.4 0.0
09/11:30am 21.2 13.3 12.6 58 4.9 SSE 46 56 25 30 1019.1 1018.8 0.0
09/11:00am 21.2 13.9 12.9 59 4.7 SSE 43 52 23 28 1019.5 1019.2 0.0
09/10:30am 20.9 13.7 11.8 56 5.1 SSE 41 48 22 26 1019.9 1019.6 0.0
09/10:00am 20.8 13.4 11.2 54 5.3 SSE 41 48 22 26 1019.9 1019.6 0.0
09/09:30am 20.8 13.3 12.0 57 4.9 SSE 43 50 23 27 1019.9 1019.6 0.0
09/09:00am 20.8 13.3 12.0 57 4.9 SSE 43 50 23 27 1019.7 1019.4 0.0
09/08:30am 20.7 13.1 11.9 57 4.9 SSE 43 50 23 27 1019.5 1019.2 0.0
09/08:00am 20.5 13.2 11.7 57 4.9 SSE 41 50 22 27 1019.1 1018.8 0.0
09/07:30am 20.3 12.9 11.2 56 5.0 SSE 41 52 22 28 1019.0 1018.7 0.0
09/07:00am 20.1 13.4 11.1 56 4.9 SSE 37 48 20 26 1018.8 1018.5 0.0
09/06:30am 19.8 13.0 10.8 56 4.9 SSE 37 46 20 25 1018.5 1018.2 0.0
09/06:00am 19.8 12.7 10.8 56 4.9 SSE 39 46 21 25 1018.1 1017.9 0.0
09/05:30am 19.9 12.5 10.0 53 5.3 SSE 39 44 21 24 1017.9 1017.7 0.0
09/05:00am 20.0 11.9 9.9 52 5.4 SSE 43 50 23 27 1017.5 1017.3 0.0
09/04:30am 20.2 12.5 10.3 53 5.4 SSE 41 48 22 26 1017.4 1017.2 0.0
09/04:00am 20.3 13.1 10.7 54 5.2 SSE 39 46 21 25 1017.3 1017.1 0.0
09/03:30am 20.5 13.6 10.3 52 5.5 SSE 37 48 20 26 1017.4 1017.2 0.0
09/03:00am 21.1 13.9 13.0 60 4.6 SSE 43 52 23 28 1017.2 1017.0 0.0
09/02:30am 21.3 13.3 12.4 57 5.0 SSE 46 56 25 30 1017.2 1017.0 0.0
09/02:00am 21.6 14.2 13.0 58 4.9 SE 44 54 24 29 1017.4 1017.2 0.0
09/01:30am 21.8 13.8 12.4 55 5.3 SSE 46 52 25 28 1017.4 1017.2 0.0
09/01:00am 21.9 14.0 11.3 51 5.9 SSE 44 54 24 29 1017.6 1017.4 0.0
09/12:30am 21.9 14.1 11.3 51 5.9 SSE 43 50 23 27 1017.6 1017.4 0.0
09/12:00am 22.3 15.8 12.8 55 5.4 SSE 39 46 21 25 1017.7 1017.5 0.0
 
Date/Time
EST
Temp
°C
App
Temp
°C
Dew
Point
°C
Rel
Hum
%
Delta-T
°C
Wind Press
QNH
hPa
Press
MSL
hPa
Rain since
9am
mm
Dir  Spd
km/h
Gust
km/h
Spd
kts
Gust
kts
08/11:30pm 22.8 16.1 13.3 55 5.5 SE 41 48 22 26 1017.8 1017.6 0.0
08/11:00pm 22.9 17.0 13.7 56 5.4 SE 37 46 20 25 1018.1 1017.9 0.0
08/10:30pm 22.7 17.5 12.9 54 5.6 SE 32 39 17 21 1018.5 1018.2 0.0
08/10:00pm 22.6 17.6 13.4 56 5.3 SE 32 35 17 19 1018.7 1018.4 0.0
08/09:30pm 22.7 17.6 13.2 55 5.5 SE 32 39 17 21 1018.8 1018.5 0.0
08/09:00pm 22.6 18.2 15.2 63 4.4 SE 32 37 17 20 1018.9 1018.6 0.0
08/08:30pm 22.5 18.0 15.4 64 4.3 SE 33 37 18 20 1018.6 1018.3 0.0
08/08:00pm 22.5 17.8 15.8 66 4.0 SE 35 41 19 22 1018.3 1018.1 0.0
08/07:30pm 22.4 17.9 15.3 64 4.2 SE 33 39 18 21 1017.8 1017.6 0.0
08/07:00pm 22.4 17.4 15.0 63 4.4 ESE 35 39 19 21 1017.3 1017.1 0.0
08/06:30pm 22.3 18.0 15.4 65 4.1 ESE 32 39 17 21 1017.1 1016.9 0.0
08/06:00pm 22.3 18.0 15.4 65 4.1 ESE 32 37 17 20 1016.8 1016.6 0.0
08/05:30pm 22.2 18.0 14.6 62 4.5 ESE 30 35 16 19 1016.4 1016.2 0.0
08/05:00pm 22.3 18.1 14.7 62 4.5 ESE 30 35 16 19 1016.0 1015.8 0.0
08/04:30pm 22.3 17.9 14.2 60 4.7 ESE 30 33 16 18 1015.8 1015.6 0.0
08/04:00pm 22.4 16.9 12.6 54 5.6 ESE 33 39 18 21 1015.8 1015.6 0.0
08/03:30pm 22.6 17.1 12.5 53 5.8 SE 33 39 18 21 1015.9 1015.7 0.0
08/03:00pm 22.7 17.9 14.0 58 5.1 SE 32 37 17 20 1015.9 1015.7 0.0
08/02:30pm 22.7 17.7 14.0 58 5.1 SE 33 39 18 21 1015.9 1015.7 0.0
08/02:00pm 22.8 17.4 13.8 57 5.2 SE 35 41 19 22 1016.2 1016.0 0.0
08/01:30pm 22.5 16.5 14.4 60 4.8 SE 39 44 21 24 1016.4 1016.2 0.0
08/01:00pm 22.1 15.8 14.5 62 4.5 SE 41 50 22 27 1016.8 1016.6 0.0
08/12:30pm 21.9 15.1 14.8 64 4.2 SSE 44 54 24 29 1017.2 1017.0 0.0
08/12:00pm 22.2 15.1 16.0 68 3.7 SE 48 57 26 31 1017.5 1017.3 0.0
08/11:30am 21.9 14.3 14.8 64 4.2 SSE 48 57 26 31 1017.8 1017.6 0.0
08/11:00am 22.2 14.4 15.1 64 4.2 SSE 50 59 27 32 1018.0 1017.8 0.0
08/10:30am 21.9 14.0 15.0 65 4.1 SE 50 59 27 32 1018.2 1018.0 0.0
08/10:00am 21.8 13.3 14.4 63 4.3 SSE 52 61 28 33 1018.2 1018.0 0.0
08/09:30am 21.8 12.6 14.4 63 4.3 SE 56 63 30 34 1018.1 1017.9 0.0
08/09:02am 21.7 14.6 13.9 61 4.5 SSE 44 63 24 34 1018.2 1018.0 0.0
08/09:00am 21.8 14.7 14.9 65 4.1 SSE 46 63 25 34 1018.1 1017.9 0.0
08/08:30am 22.2 13.4 14.6 62 4.5 SSE 54 61 29 33 1017.6 1017.4 0.0
08/08:00am 21.9 14.9 15.3 66 3.9 SSE 46 57 25 31 1017.4 1017.2 0.0
08/07:30am 21.9 14.5 14.3 62 4.5 SSE 46 56 25 30 1017.0 1016.8 0.0
08/07:00am 22.1 14.8 14.5 62 4.5 SSE 46 57 25 31 1016.8 1016.6 0.0
08/06:30am 22.0 14.9 14.1 61 4.6 SSE 44 52 24 28 1016.4 1016.2 0.0
08/06:00am 22.1 14.9 14.7 63 4.4 SSE 46 54 25 29 1016.0 1015.8 0.0
08/05:30am 22.3 15.3 15.2 64 4.2 SSE 46 56 25 30 1015.7 1015.5 0.0
08/05:00am 22.4 16.0 15.5 65 4.1 SSE 43 52 23 28 1015.2 1015.0 0.0
08/04:30am 22.6 16.0 16.4 68 3.8 SSE 46 54 25 29 1015.0 1014.8 0.0
08/04:16am 22.7 17.3 18.3 76 2.8 SSE 44 52 24 28 1015.0 1014.8 0.0
08/04:00am 22.8 18.3 20.0 84 1.8 SSE 43 52 23 28 1015.0 1014.8 0.0
08/03:30am 22.9 21.6 21.4 91 1.0 SSE 30 37 16 20 1015.0 1014.8 0.0
08/03:23am 23.0 21.8 21.5 91 1.0 SSE 30 37 16 20 1015.0 1014.8 0.0
08/03:00am 23.1 21.6 21.7 92 0.9 SSE 32 37 17 20 1014.9 1014.7 0.0
08/02:30am 23.1 21.6 21.7 92 0.9 SSE 32 33 17 18 1014.9 1014.7 0.0
08/02:00am 23.2 22.5 21.8 92 0.9 SSE 28 32 15 17 1015.0 1014.8 0.0
08/01:30am 23.2 23.3 21.8 92 0.9 SSE 24 28 13 15 1015.1 1014.9 0.0
08/01:06am 23.3 23.8 21.9 92 0.9 SSE 22 28 12 15 1015.3 1015.1 0.0
08/01:00am 23.3 23.8 21.9 92 0.9 SSE 22 28 12 15 1015.2 1015.0 0.0
08/12:54am 23.3 23.8 21.9 92 0.9 SSE 22 28 12 15 1015.3 1015.1 0.0
08/12:30am 23.5 23.4 21.4 88 1.4 SSE 24 30 13 16 1015.4 1015.2 0.0
08/12:00am 23.5 23.6 21.2 87 1.5 SE 22 26 12 14 1015.6 1015.4 0.0
 
Date/Time
EST
Temp
°C
App
Temp
°C
Dew
Point
°C
Rel
Hum
%
Delta-T
°C
Wind Press
QNH
hPa
Press
MSL
hPa
Rain since
9am
mm
Dir  Spd
km/h
Gust
km/h
Spd
kts
Gust
kts
07/11:30pm 23.6 24.2 21.3 87 1.5 SE 20 24 11 13 1015.6 1015.4 0.0
07/11:00pm 23.6 24.4 21.3 87 1.5 SE 19 20 10 11 1015.8 1015.6 0.0
07/10:30pm 23.6 24.6 21.1 86 1.6 SE 17 20 9 11 1016.0 1015.8 0.0
07/10:00pm 23.6 24.7 21.3 87 1.5 SE 17 20 9 11 1016.1 1015.9 0.0
07/09:30pm 23.7 24.4 21.2 86 1.6 SE 19 22 10 12 1016.1 1015.9 0.0
07/09:00pm 23.7 24.2 21.2 86 1.6 SE 20 22 11 12 1016.2 1016.0 0.0
07/08:30pm 23.7 24.5 21.4 87 1.5 SE 19 24 10 13 1016.4 1016.2 0.0
07/08:00pm 23.8 24.2 20.9 84 1.9 ESE 20 24 11 13 1016.2 1016.0 0.0
07/07:30pm 23.8 24.7 21.5 87 1.5 ESE 19 24 10 13 1015.8 1015.6 0.0
07/07:00pm 23.9 24.0 21.2 85 1.8 ESE 22 28 12 15 1015.4 1015.2 0.0
07/06:30pm 23.9 23.3 21.2 85 1.8 ESE 26 30 14 16 1015.1 1014.9 0.0
07/06:00pm 23.8 24.1 20.7 83 2.0 ESE 20 26 11 14 1014.8 1014.6 0.0
07/05:30pm 23.8 23.6 21.3 86 1.6 ESE 24 30 13 16 1014.3 1014.1 0.0
07/05:00pm 24.1 23.5 21.2 84 1.9 ESE 26 30 14 16 1014.1 1013.9 0.0
07/04:30pm 24.2 23.1 21.1 83 2.0 SE 28 32 15 17 1013.7 1013.5 0.0
07/04:00pm 24.4 24.1 21.1 82 2.2 ESE 24 28 13 15 1013.6 1013.4 0.0
07/03:30pm 24.6 24.1 20.7 79 2.6 SE 24 28 13 15 1013.6 1013.4 0.0
07/03:00pm 24.9 24.4 21.4 81 2.3 SE 26 30 14 16 1013.6 1013.4 0.0
07/02:30pm 24.9 24.4 21.4 81 2.3 SE 26 30 14 16 1013.5 1013.3 0.0
07/02:00pm 24.9 23.7 21.6 82 2.2 SE 30 33 16 18 1013.7 1013.5 0.0
07/01:30pm 24.6 22.7 20.9 80 2.4 SSE 32 35 17 19 1013.8 1013.6 0.0
07/01:00pm 24.4 22.2 20.7 80 2.4 SE 33 37 18 20 1014.1 1013.9 0.0
07/12:30pm 24.6 23.2 21.1 81 2.3 SSE 30 35 16 19 1014.2 1014.0 0.0
07/12:11pm 24.5 22.8 21.4 83 2.1 SSE 32 37 17 20 1014.4 1014.2 0.0
07/12:00pm 24.5 23.7 21.6 84 1.9 SSE 28 35 15 19 1014.5 1014.3 0.0
07/11:31am 24.6 22.8 21.5 83 2.1 SSE 33 37 18 20 1014.8 1014.6 0.0
07/11:30am 24.7 23.1 21.8 84 1.9 SSE 33 37 18 20 1014.8 1014.6 0.0
07/11:00am 24.3 23.4 21.4 84 1.9 SSE 28 35 15 19 1015.3 1015.1 0.0
07/10:30am 24.2 23.3 21.5 85 1.8 SSE 28 33 15 18 1015.5 1015.3 0.0
07/10:20am 24.2 23.6 21.3 84 1.9 SSE 26 32 14 17 1015.6 1015.4 0.0
07/10:00am 24.0 22.9 21.1 84 1.9 SSE 28 39 15 21 1015.7 1015.5 0.0
07/09:38am 23.9 23.8 21.4 86 1.7 SSE 24 33 13 18 1015.7 1015.5 0.0
07/09:31am 23.5 23.1 21.0 86 1.6 SSE 24 33 13 18 1015.7 1015.5 0.0
07/09:30am 23.6 23.3 21.1 86 1.6 SSE 24 33 13 18 1015.8 1015.6 0.0
07/09:18am 23.1 22.9 21.2 89 1.2 S 24 32 13 17 1015.7 1015.5 0.0
07/09:05am 23.0 22.9 21.5 91 1.0 SSE 24 30 13 16 1015.6 1015.4 0.0
07/09:00am 22.9 22.8 21.5 92 0.9 SSE 24 30 13 16 1015.6 1015.4 0.2
07/08:30am 23.1 21.7 21.2 89 1.2 SSE 30 33 16 18 1015.3 1015.1 0.2
07/08:25am 23.2 22.2 21.3 89 1.3 SSE 28 33 15 18 1015.1 1014.9 0.2
07/08:20am 23.6 23.1 21.5 88 1.4 SSE 26 32 14 17 1015.1 1014.9 0.2
07/08:00am 23.3 22.8 21.4 89 1.3 SSE 26 32 14 17 1015.0 1014.8 0.2
07/07:58am 23.3 22.9 21.6 90 1.1 SSE 26 32 14 17 1015.0 1014.8 0.2
07/07:30am 22.8 22.5 21.1 90 1.1 SSE 24 28 13 15 1014.8 1014.6 0.2
07/07:10am 22.6 22.7 21.1 91 1.0 SSE 22 28 12 15 1014.7 1014.5 0.2
07/07:00am 22.7 23.2 21.2 91 1.0 SSE 20 28 11 15 1014.7 1014.5 0.2
07/06:48am 22.7 23.2 21.2 91 1.0 SSE 20 26 11 14 1014.6 1014.4 0.2
07/06:30am 22.5 22.9 21.0 91 1.0 SSE 20 26 11 14 1014.4 1014.2 0.2
07/06:00am 22.5 22.9 21.0 91 1.0 SSE 20 28 11 15 1014.0 1013.8 0.2
07/05:30am 22.9 23.6 21.2 90 1.1 SSE 19 24 10 13 1013.7 1013.5 0.2
07/05:01am 22.9 23.4 20.8 88 1.4 SE 19 22 10 12 1013.8 1013.6 0.2
07/05:00am 22.9 23.5 21.0 89 1.2 SE 19 22 10 12 1013.8 1013.6 0.2
07/04:30am 22.8 23.1 20.5 87 1.5 SE 19 20 10 11 1013.6 1013.4 0.2
07/04:00am 22.8 23.6 20.7 88 1.4 SE 17 20 9 11 1013.7 1013.5 0.2
07/03:30am 23.1 23.7 21.0 88 1.4 ESE 19 22 10 12 1013.8 1013.6 0.2
07/03:00am 23.2 23.6 20.9 87 1.5 SE 20 24 11 13 1013.7 1013.5 0.2
07/02:30am 23.1 22.9 20.6 86 1.6 SE 22 24 12 13 1013.8 1013.6 0.2
07/02:00am 23.2 23.1 20.7 86 1.6 SE 22 24 12 13 1014.0 1013.8 0.2
07/01:30am 23.3 23.6 20.4 84 1.9 SE 19 22 10 12 1014.1 1013.9 0.2
07/01:00am 23.3 23.3 20.2 83 2.0 SE 20 24 11 13 1014.3 1014.1 0.2
07/12:30am 23.5 22.9 20.4 83 2.0 SE 24 28 13 15 1014.5 1014.3 0.2
07/12:00am 23.6 23.4 20.5 83 2.0 SE 22 26 12 14 1014.9 1014.7 0.2
 
Date/Time
EST
Temp
°C
App
Temp
°C
Dew
Point
°C
Rel
Hum
%
Delta-T
°C
Wind Press
QNH
hPa
Press
MSL
hPa
Rain since
9am
mm
Dir  Spd
km/h
Gust
km/h
Spd
kts
Gust
kts
06/11:44pm 23.6 23.8 20.5 83 2.0 SE 20 24 11 13 1015.0 1014.8 0.2
06/11:30pm 23.6 23.5 20.7 84 1.9 SE 22 26 12 14 1015.0 1014.8 0.2
06/11:29pm 23.6 23.5 20.7 84 1.9 SE 22 26 12 14 1015.0 1014.8 0.2
06/11:00pm 23.4 23.7 20.7 85 1.8 SE 20 26 11 14 1015.1 1014.9 0.2
06/10:30pm 23.4 23.6 21.3 88 1.4 SE 22 26 12 14 1015.3 1015.1 0.2
06/10:00pm 23.4 23.6 21.3 88 1.4 SE 22 26 12 14 1015.5 1015.3 0.2
06/09:31pm 23.3 23.8 21.2 88 1.4 SE 20 24 11 13 1015.5 1015.3 0.2
06/09:30pm 23.3 23.8 21.2 88 1.4 SE 20 24 11 13 1015.5 1015.3 0.2
06/09:00pm 23.7 23.2 21.4 87 1.5 SE 26 28 14 15 1015.4 1015.2 0.2

Other formats

Comma delimited format used in spreadsheet applications
http://www.bom.gov.au/fwo/IDQ60801/IDQ60801.94368.axf

JavaScript Object Notation format (JSON) in row-major order
http://www.bom.gov.au/fwo/IDQ60801/IDQ60801.94368.json

Data quality

Most of these data are generated automatically and are frequently updated. Quality checks on data are not normally performed. It is possible for incorrect values to appear. Refer to information at About Latest Weather Observations and please check the disclaimer before using these data.